[[{"header":{"parameterUnit":"m.s-1","parameterCategory":1,"la1":30.2992,"la2":30.254,"lo1":-89.0895,"lo2":-89.0443,"dy":0.0025,"dx":0.0025,"nx":19,"ny":19,"refTime":"2026-05-10T21:00:00:Z","depth":0,"parameterNumber":2,"parameterNumberName":"U-component_of_WINDS"},"data":[0,0,0,-0.7056,-0.7055,-0.7002,-0.7001,-0.6949,-0.6948,0,0,0,0,0,0,0,0,0,0,0,-0.7081,-0.7081,-0.7056,-0.7055,-0.7002,-0.7001,-0.6949,-0.6948,0,0,0,0,0,0,0,0,0,0,0,-0.7081,-0.7081,-0.7081,-0.7055,-0.7002,-0.7001,-0.6949,-0.6984,0,0,0,0,0,0,0,0,0,0,-0.7033,-0.7065,-0.7081,-0.7081,-0.7055,-0.7002,-0.7001,-0.6985,-0.6982,-0.698,0,-0.698,0,-0.6964,-0.6946,-0.6946,0,0,0,-0.7048,-0.7068,-0.7045,-0.7081,-0.7054,-0.7002,-0.7024,-0.6983,-0.6979,-0.6975,-0.6979,-0.6977,-0.6963,-0.6946,-0.6946,-0.6959,-0.6959,0,0,-0.7051,-0.7076,-0.7048,-0.7043,-0.7052,-0.7026,-0.7022,-0.698,-0.6987,-0.6979,-0.6975,-0.6962,-0.6945,-0.6945,-0.6959,-0.6959,0,0,0,-0.7064,-0.7079,-0.7057,-0.7046,-0.7035,-0.7024,-0.702,-0.6988,-0.6979,-0.6975,-0.6961,-0.6945,-0.6945,-0.6958,-0.6959,-0.7003,0,0,0,-0.7066,-0.7086,-0.7058,-0.7073,-0.7036,-0.7011,-0.703,-0.6982,-0.6977,-0.6962,-0.6945,-0.6944,-0.6958,-0.6958,-0.7001,-0.702,0,0,0,-0.7081,-0.7088,-0.7083,-0.7075,-0.7053,-0.7011,-0.6999,-0.698,-0.6969,-0.6946,-0.6944,-0.6957,-0.6958,-0.6999,-0.7017,-0.7033,0,0,0,-0.7105,-0.7123,-0.7085,-0.7099,-0.7053,-0.7039,-0.6999,-0.6987,-0.6972,-0.6945,-0.6958,-0.6959,-0.6999,-0.7015,-0.7031,-0.7051,-0.7061,0,0,-0.7141,-0.7128,-0.7134,-0.7099,-0.7098,-0.7045,-0.7051,-0.7013,-0.6987,-0.697,-0.697,-0.7002,-0.7017,-0.7032,-0.711,-0.7119,0,0,0,-0.7154,-0.716,-0.7154,-0.7142,-0.7114,-0.7093,-0.7052,-0.7038,-0.7022,-0.6983,-0.701,-0.7018,-0.7026,-0.7035,-0.7042,-0.7048,-0.6963,-0.6963,-0.6963,-0.7242,-0.7209,-0.7218,-0.718,-0.7169,-0.7127,-0.7115,-0.709,-0.7059,-0.7066,-0.7061,-0.7112,-0.7123,-0.7129,-0.7135,-0.7068,-0.7068,-0.7068,-0.7069,-0.7293,-0.7295,-0.7256,-0.725,-0.7216,-0.7211,-0.7173,-0.7151,-0.7142,-0.7113,-0.7118,-0.709,-0.7139,-0.7143,-0.7072,-0.7071,-0.7071,-0.707,-0.707,-0.7347,-0.7343,-0.7326,-0.7307,-0.7296,-0.7256,-0.725,-0.7218,-0.7188,-0.7193,-0.7186,-0.7185,-0.7181,-0.7192,-0.7192,-0.7192,-0.7192,-0.7192,-0.7193,-0.741,-0.739,-0.7389,-0.7363,-0.7352,-0.7334,-0.7294,-0.7282,-0.7261,-0.7239,-0.7238,-0.7208,-0.7149,-0.7136,-0.7195,-0.7195,-0.7194,-0.7194,-0.7194,-0.7476,-0.7456,-0.7455,-0.7444,-0.7411,-0.7403,-0.7363,-0.7343,-0.7329,-0.7327,-0.7296,-0.7257,-0.7241,-0.7235,-0.7224,-0.7302,-0.7302,-0.7302,-0.7302,-0.7522,-0.7511,-0.7504,-0.7489,-0.7471,-0.7435,-0.7436,-0.7405,-0.7371,-0.736,-0.7344,-0.7326,-0.7322,-0.7308,-0.7301,-0.729,-0.7383,-0.7383,-0.7383,-0.7562,-0.7548,-0.7554,-0.752,-0.7493,-0.7471,-0.7471,-0.7456,-0.7412,-0.7386,-0.7352,-0.7348,-0.7319,-0.7311,-0.7284,-0.7273,-0.7252,0,0]},{"header":{"parameterUnit":"m.s-1","parameterCategory":1,"la1":30.2992,"la2":30.254,"lo1":-89.0895,"lo2":-89.0443,"dy":0.0025,"dx":0.0025,"nx":19,"ny":19,"refTime":"2026-05-10T21:00:00:Z","depth":0,"parameterNumber":3,"parameterNumberName":"V-component_of_WINDS"},"data":[0,0,0,0.595,0.5949,0.5899,0.5899,0.5845,0.5845,0,0,0,0,0,0,0,0,0,0,0,0.5973,0.5973,0.595,0.5949,0.5899,0.5899,0.5845,0.5845,0,0,0,0,0,0,0,0,0,0,0,0.5973,0.5973,0.5973,0.5949,0.5899,0.5899,0.5845,0.5879,0,0,0,0,0,0,0,0,0,0,0.5925,0.5956,0.5973,0.5973,0.5949,0.5899,0.5899,0.588,0.5877,0.5873,0,0.5874,0,0.5858,0.5842,0.5842,0,0,0,0.5942,0.5959,0.5938,0.5973,0.5949,0.59,0.592,0.5878,0.5874,0.5868,0.5873,0.587,0.5858,0.5842,0.5841,0.5848,0.5848,0,0,0.5945,0.5968,0.5941,0.5936,0.5947,0.5922,0.5918,0.5875,0.5881,0.5872,0.5869,0.5857,0.5841,0.5841,0.5847,0.5848,0,0,0,0.5958,0.5971,0.595,0.5938,0.5929,0.592,0.5917,0.5883,0.5874,0.5868,0.5856,0.5841,0.5841,0.5847,0.5848,0.589,0,0,0,0.5959,0.5978,0.5952,0.5966,0.593,0.5906,0.5925,0.5878,0.5872,0.5856,0.5841,0.584,0.5847,0.5847,0.5888,0.5906,0,0,0,0.5974,0.598,0.5976,0.5967,0.5947,0.5906,0.5895,0.5876,0.5865,0.5842,0.584,0.5846,0.5847,0.5886,0.5903,0.5916,0,0,0,0.5996,0.6012,0.5977,0.599,0.5947,0.5933,0.5895,0.5882,0.5867,0.5841,0.5847,0.5847,0.5886,0.5901,0.5914,0.5933,0.5942,0,0,0.6029,0.6017,0.6023,0.599,0.5988,0.5938,0.5942,0.5904,0.5879,0.5859,0.5859,0.5889,0.5903,0.5916,0.5985,0.5992,0,0,0,0.6041,0.6046,0.6041,0.6029,0.6002,0.5981,0.5941,0.5927,0.5909,0.5875,0.5895,0.5903,0.5909,0.5917,0.5924,0.5928,0.5852,0.5852,0.5851,0.6123,0.6092,0.61,0.6063,0.6052,0.6011,0.5998,0.5972,0.5942,0.5948,0.5942,0.5988,0.5998,0.6003,0.6008,0.5948,0.5948,0.5948,0.5948,0.6171,0.6174,0.6135,0.6129,0.6095,0.6089,0.6049,0.6029,0.6017,0.5989,0.5993,0.5968,0.6012,0.6015,0.5951,0.595,0.595,0.595,0.5949,0.6223,0.6219,0.6203,0.6183,0.617,0.613,0.6122,0.609,0.606,0.6064,0.6055,0.6054,0.6051,0.6062,0.6062,0.6062,0.6062,0.6062,0.6062,0.6284,0.6265,0.6263,0.6236,0.6225,0.6205,0.6163,0.615,0.6127,0.6105,0.6105,0.6075,0.6022,0.6011,0.6065,0.6064,0.6064,0.6064,0.6064,0.6348,0.6328,0.6326,0.6314,0.628,0.627,0.6229,0.6206,0.619,0.6187,0.6155,0.6121,0.6105,0.61,0.609,0.6161,0.6161,0.6161,0.6161,0.6393,0.6382,0.6373,0.6357,0.6337,0.63,0.6296,0.6263,0.6226,0.6214,0.6198,0.6182,0.6178,0.6165,0.6158,0.6149,0.6233,0.6233,0.6233,0.6431,0.6417,0.6421,0.6387,0.6357,0.6333,0.6329,0.631,0.6263,0.6235,0.6204,0.6201,0.6175,0.6167,0.6141,0.6131,0.6113,0,0]}]]